Wind_Speed
3 4 5 6 7 7 10 11 12 12 11 13 15 16 17 18 18 18 18 17 18 18 20 20 21 21 21 20 20 20 21 21 22 23 24 23 23 24 25 25 25 25 25 25
4 4 5 6 6 7 9 10 11 11 12 12 14 14 14 16 16 16 17 19 18 18 19 20 21 21 19 20 20 20 20 21 22 22 23 23 23 23 23 24 23 23 24 23
4 4 5 5 5 6 7 9 9 10 12 12 13 12 13 15 15 16 17 18 19 19 19 20 19 19 19 19 20 19 20 21 22 22 22 23 24 23 22 23 24 23 24 23
4 4 4 4 4 6 6 7 8 9 10 10 10 11 12 14 16 16 17 17 17 17 17 18 19 18 18 19 19 19 19 19 20 21 21 21 22 22 22 23 23 23 24 24
5 5 4 4 4 4 5 5 8 8 8 8 9 9 12 14 15 15 16 16 16 16 16 17 18 18 17 18 18 18 17 18 19 19 19 19 20 21 22 22 22 22 23 24
5 6 5 4 3 3 3 5 6 6 6 7 8 10 14 15 15 15 16 15 15 15 16 16 17 16 16 16 16 16 16 17 17 17 18 19 19 20 21 21 22 23 23 24
6 6 6 5 4 3 3 5 5 4 5 7 8 10 14 15 15 15 15 14 15 15 15 15 15 15 14 14 14 15 15 16 16 17 18 19 19 19 20 21 22 22 23 24
5 4 5 4 4 4 5 6 6 6 5 6 8 10 11 11 13 15 15 13 14 14 14 13 13 14 14 14 15 15 15 16 16 18 18 18 19 19 19 21 21 22 23 24
4 5 5 5 5 5 4 4 6 7 6 6 8 9 10 10 12 12 13 14 13 13 13 13 14 15 15 15 15 16 16 16 17 18 17 18 18 19 19 20 21 22 22 23
5 5 5 5 5 6 5 4 6 7 7 7 7 9 9 10 10 13 13 13 13 13 13 13 14 15 15 15 15 15 15 16 16 17 17 17 18 18 19 20 21 21 21 22
6 5 4 4 6 6 6 5 7 8 8 8 8 10 9 10 12 13 13 12 12 13 13 14 15 15 15 14 15 15 15 15 16 16 17 17 17 18 19 20 20 20 20 21
6 6 5 5 6 6 7 7 8 10 8 8 10 11 10 12 12 13 13 13 13 14 14 14 15 15 15 15 15 14 15 15 16 17 17 18 17 18 18 19 20 21 21 21
8 6 6 6 7 7 7 8 8 9 10 10 11 11 11 12 13 13 14 13 13 13 14 14 15 14 15 15 15 15 15 15 15 16 17 17 17 18 18 19 19 20 20 21
8 6 6 6 6 8 8 8 8 9 10 10 11 11 12 13 14 14 14 13 14 15 14 14 15 15 16 16 15 15 15 15 15 15 16 16 17 18 18 18 18 19 20 21
8 7 7 7 7 8 8 8 9 10 11 11 11 12 12 14 14 14 14 14 15 15 14 15 15 16 15 15 14 14 14 15 15 15 16 16 17 17 17 18 18 19 20 21
9 8 8 8 9 9 9 9 10 11 12 12 12 12 13 13 14 14 14 14 15 15 14 15 15 14 14 14 14 14 14 14 14 15 15 16 16 17 17 18 18 19 21 21
10 9 9 9 10 10 11 10 11 13 12 12 13 13 14 14 14 15 15 15 15 15 15 15 14 13 13 13 13 13 13 13 13 14 15 16 17 17 17 18 19 19 20 21
11 10 10 11 12 12 12 12 13 14 14 14 14 14 15 15 14 14 14 14 15 15 15 14 14 13 12 13 12 12 12 12 13 14 15 16 16 17 18 18 19 20 21 21
11 12 12 12 13 13 14 14 14 15 15 14 14 15 15 15 14 14 15 15 14 14 14 14 14 14 14 13 12 12 12 12 13 14 14 15 15 16 17 18 19 20 20 21
13 13 13 13 14 14 15 14 15 15 15 15 15 15 14 15 14 15 16 15 14 14 14 14 14 14 14 13 12 12 11 12 12 13 14 14 15 16 17 18 18 19 20 21
15 15 14 14 15 15 16 15 15 15 16 16 16 16 15 16 15 16 16 15 15 14 14 14 14 14 14 13 12 12 11 12 13 13 14 14 15 15 17 17 18 19 20 21
17 16 16 16 16 16 16 16 16 16 17 17 17 17 16 16 16 16 16 15 15 15 14 14 14 14 13 12 12 12 12 12 13 13 13 14 15 16 17 17 18 19 20 21
17 16 16 17 17 17 17 16 16 17 17 18 18 18 17 16 15 15 14 14 14 14 13 13 13 13 13 12 11 12 12 12 13 13 13 14 14 15 16 18 18 19 20 21
19 18 18 18 17 17 17 17 17 18 18 19 18 18 17 16 15 15 15 15 14 14 13 13 13 12 12 11 11 11 11 12 12 12 12 13 14 15 16 17 18 19 20 21
20 20 19 19 18 18 19 18 18 19 18 18 17 17 16 15 15 16 15 15 14 14 13 12 12 12 11 10 10 10 11 10 11 11 12 13 13 14 15 16 17 19 20 21
21 21 21 20 20 20 19 20 20 19 19 18 17 17 15 15 15 16 16 15 15 14 13 13 12 11 11 10 10 10 9 10 10 10 12 12 12 13 14 16 18 19 20 20
Wind_Direction
322 289 271 258 254 258 261 261 259 264 266 268 272 273 273 276 275 277 281 284 279 277 278 277 275 275 276 275 274 274 274 275 276 280 282 283 285 287 290 290 292 293 292 292
329 308 299 293 288 275 262 266 268 272 276 273 275 276 278 275 276 281 282 282 279 279 277 278 280 272 276 274 275 275 275 277 278 278 279 282 282 285 290 291 293 294 294 294
351 326 306 305 298 294 277 273 276 276 274 276 279 281 285 271 273 284 285 284 285 283 278 279 282 281 278 276 275 276 277 279 281 281 282 283 283 285 290 292 293 294 295 296
2 338 319 312 297 297 295 295 289 281 278 283 280 282 285 280 276 282 287 288 286 284 281 280 283 284 284 282 278 276 279 281 281 284 286 286 286 289 291 293 294 294 296 297
355 339 331 320 307 296 288 290 297 299 286 286 285 282 276 281 281 281 285 284 285 288 285 283 286 288 286 286 284 284 282 283 281 284 286 288 290 291 292 294 297 298 298 298
353 342 339 341 314 321 308 305 310 304 297 282 280 277 278 282 290 289 287 288 285 286 287 286 287 288 286 288 286 287 290 288 288 289 289 292 293 293 294 297 299 299 299 299
6 350 330 333 341 333 323 319 327 329 301 289 275 278 283 286 293 291 288 289 286 289 291 290 290 290 292 291 287 288 289 291 292 294 294 294 294 295 297 299 300 299 300 300
352 331 310 325 335 341 333 331 330 318 312 293 278 284 287 291 297 293 289 291 290 294 295 294 294 297 297 295 290 288 290 293 295 297 299 298 297 298 299 301 302 302 301 302
344 330 323 325 323 336 346 345 331 315 312 299 285 288 299 302 302 302 297 294 293 294 296 299 301 303 297 296 297 294 295 297 300 302 301 301 301 300 301 303 304 304 304 304
334 335 344 347 340 348 348 343 320 312 311 304 306 302 300 295 298 300 300 300 297 297 300 298 300 305 308 308 309 307 302 302 304 306 304 305 306 307 307 306 308 307 308 309
341 338 343 343 343 341 329 314 313 315 304 317 317 306 308 299 296 300 306 303 299 302 305 302 301 303 306 306 305 307 307 305 307 309 308 309 310 309 308 308 309 310 310 311
344 342 348 338 335 337 329 322 319 326 327 314 311 312 312 314 308 305 306 304 300 301 304 302 302 303 307 307 307 308 307 306 308 312 314 315 312 311 310 310 311 312 312 314
337 331 340 340 335 333 335 330 326 326 327 321 320 314 313 310 310 308 304 305 302 304 303 304 305 305 305 308 310 309 309 307 310 313 314 317 317 315 315 316 316 315 316 317
332 330 326 328 323 321 327 331 324 321 322 322 325 316 316 314 311 310 309 311 310 309 308 306 305 307 307 309 308 308 310 311 312 313 315 319 321 320 319 318 318 317 318 318
324 324 323 323 320 322 323 325 322 322 322 318 316 314 314 310 311 307 308 309 309 309 311 309 308 310 310 310 309 308 310 312 314 316 318 319 321 321 319 318 320 318 319 319
315 319 318 317 318 317 316 315 317 318 321 317 313 311 310 308 307 305 306 308 307 307 310 310 311 312 314 314 314 311 310 312 314 317 320 321 322 322 321 321 321 321 323 323
311 316 316 314 317 318 315 316 315 315 314 311 309 310 310 309 307 306 308 308 307 308 309 311 316 315 316 315 316 315 313 313 316 318 321 323 324 325 324 324 324 326 327 326
307 309 310 311 313 309 309 309 308 309 309 308 307 307 311 310 310 310 310 310 308 307 310 315 318 318 318 317 317 318 315 316 318 321 322 323 324 326 326 327 329 331 330 328
302 305 308 310 310 311 314 316 316 314 310 310 310 310 309 308 306 305 308 310 307 307 310 312 314 315 316 315 316 318 317 316 318 320 322 325 328 328 328 330 333 336 335 332
298 301 303 305 306 308 313 317 316 313 312 311 313 313 311 310 306 306 310 308 307 307 307 308 309 310 313 314 315 317 318 317 320 322 326 327 330 330 333 337 339 340 339 338
293 296 298 301 304 308 311 312 310 309 312 312 315 312 311 311 310 308 309 307 308 308 306 305 306 308 310 312 313 315 317 319 323 325 327 328 331 336 339 341 341 341 342 342
287 290 293 297 301 301 304 303 304 305 309 311 311 309 308 310 312 310 307 307 308 306 304 304 305 306 308 308 309 312 316 320 323 327 328 330 335 339 342 343 343 343 344 345
281 284 285 288 292 294 298 303 305 305 308 311 312 310 308 310 312 314 311 309 308 307 304 304 303 304 304 303 305 310 314 317 321 326 329 333 337 341 343 345 345 346 347 347
280 282 283 283 284 287 291 295 300 302 304 308 310 312 308 307 308 310 309 310 309 308 308 306 304 303 304 302 307 310 312 315 319 325 328 332 336 341 344 346 348 348 349 349
275 278 281 284 284 286 289 294 296 299 303 306 309 310 310 305 304 306 308 309 307 306 307 306 305 304 303 305 308 309 312 315 320 325 329 332 335 340 343 346 347 349 350 351
273 275 278 280 283 283 284 288 291 295 300 302 304 304 304 304 303 305 307 309 306 302 304 304 303 303 304 304 306 308 308 312 319 325 329 332 335 339 341 343 346 348 350 352
Height
5819 5820 5821 5822 5823 5824 5825 5825 5826 5827 5826 5825 5825 5825 5823 5823 5823 5823 5822 5821 5820 5822 5821 5821 5821 5819 5819 5819 5819 5819 5819 5819 5819 5818 5818 5817 5816 5815 5814 5813 5811 5809 5807 5806
5821 5821 5822 5822 5822 5822 5822 5823 5823 5823 5822 5822 5822 5821 5820 5820 5819 5819 5819 5817 5817 5818 5818 5817 5815 5814 5814 5815 5815 5815 5815 5815 5814 5813 5812 5812 5811 5810 5809 5807 5805 5803 5802 5800
5821 5822 5822 5821 5821 5820 5820 5820 5820 5821 5820 5819 5819 5819 5818 5817 5816 5816 5816 5815 5814 5814 5814 5813 5812 5810 5810 5810 5811 5810 5810 5810 5809 5808 5808 5807 5806 5805 5804 5802 5800 5798 5797 5795
5822 5822 5821 5821 5820 5820 5819 5819 5818 5818 5817 5817 5817 5816 5815 5813 5813 5813 5813 5812 5811 5811 5810 5810 5809 5808 5807 5807 5806 5806 5806 5806 5805 5804 5803 5802 5801 5800 5799 5797 5795 5794 5792 5790
5822 5821 5821 5820 5820 5819 5818 5818 5817 5816 5815 5815 5815 5815 5813 5811 5810 5810 5810 5808 5808 5807 5807 5807 5806 5805 5804 5803 5803 5802 5802 5802 5801 5800 5799 5798 5796 5795 5794 5792 5790 5789 5787 5785
5822 5821 5820 5819 5818 5818 5817 5816 5815 5814 5814 5814 5815 5815 5812 5810 5809 5807 5806 5806 5805 5805 5804 5803 5803 5802 5802 5800 5800 5799 5799 5798 5797 5796 5794 5793 5792 5790 5789 5787 5785 5784 5782 5780
5822 5821 5820 5819 5819 5817 5816 5816 5814 5814 5813 5813 5813 5813 5811 5808 5807 5806 5804 5803 5803 5802 5801 5801 5799 5799 5799 5797 5797 5796 5796 5795 5793 5792 5790 5789 5788 5786 5784 5783 5780 5778 5776 5774
5824 5823 5820 5818 5818 5817 5816 5815 5814 5814 5813 5812 5811 5810 5808 5806 5805 5803 5802 5800 5800 5800 5799 5798 5797 5796 5795 5794 5793 5793 5792 5791 5790 5788 5787 5785 5783 5781 5780 5778 5776 5774 5771 5769
5823 5823 5820 5818 5817 5816 5815 5814 5814 5812 5811 5811 5809 5807 5807 5805 5803 5801 5801 5799 5798 5798 5797 5796 5795 5794 5792 5791 5790 5789 5788 5787 5786 5784 5783 5781 5779 5777 5775 5773 5771 5769 5767 5764
5823 5822 5822 5820 5818 5817 5816 5815 5813 5811 5810 5809 5808 5806 5806 5804 5802 5800 5798 5798 5797 5796 5795 5794 5792 5791 5789 5787 5786 5784 5784 5783 5782 5780 5779 5777 5775 5773 5771 5769 5767 5764 5762 5760
5822 5822 5821 5820 5818 5817 5816 5815 5812 5810 5809 5808 5806 5807 5804 5802 5800 5799 5797 5795 5795 5794 5792 5791 5790 5789 5787 5786 5784 5782 5781 5780 5779 5777 5775 5773 5771 5769 5767 5765 5762 5760 5757 5754
5822 5821 5820 5819 5818 5816 5815 5814 5812 5810 5808 5807 5805 5806 5802 5800 5799 5797 5795 5794 5792 5791 5790 5788 5787 5786 5785 5783 5782 5780 5779 5778 5776 5774 5772 5770 5768 5765 5763 5761 5758 5756 5752 5749
5822 5821 5820 5819 5819 5817 5814 5813 5811 5810 5808 5806 5804 5805 5801 5800 5798 5796 5794 5791 5790 5788 5788 5786 5785 5784 5782 5781 5779 5777 5776 5774 5773 5771 5769 5767 5764 5761 5759 5756 5754 5751 5748 5745
5821 5820 5820 5819 5817 5815 5814 5812 5811 5809 5807 5805 5803 5801 5800 5798 5796 5794 5792 5790 5788 5786 5785 5784 5783 5781 5780 5778 5776 5774 5773 5771 5770 5768 5766 5763 5761 5758 5755 5753 5750 5748 5745 5742
5821 5820 5818 5817 5816 5814 5813 5811 5810 5808 5806 5804 5802 5800 5798 5796 5793 5791 5790 5788 5786 5784 5783 5782 5780 5778 5776 5775 5773 5772 5770 5768 5767 5765 5762 5760 5757 5755 5752 5750 5747 5744 5742 5738
5820 5819 5817 5816 5814 5813 5811 5810 5808 5806 5805 5802 5800 5799 5796 5794 5791 5789 5788 5786 5784 5782 5781 5779 5777 5775 5774 5772 5770 5768 5767 5766 5764 5762 5759 5757 5755 5752 5749 5747 5744 5741 5738 5735
5818 5817 5816 5815 5813 5811 5810 5808 5806 5804 5802 5800 5798 5797 5793 5791 5789 5787 5786 5784 5782 5780 5779 5777 5774 5773 5771 5769 5767 5766 5764 5763 5761 5759 5757 5754 5752 5749 5747 5744 5741 5738 5735 5731
5817 5815 5814 5813 5812 5809 5810 5806 5804 5802 5799 5797 5795 5793 5790 5788 5786 5784 5782 5781 5780 5778 5776 5774 5772 5770 5768 5767 5765 5763 5762 5760 5758 5757 5755 5752 5749 5747 5744 5741 5738 5735 5732 5728
5814 5813 5812 5811 5809 5807 5805 5803 5801 5799 5796 5794 5792 5790 5787 5785 5784 5782 5780 5778 5777 5775 5774 5772 5771 5769 5767 5765 5763 5761 5759 5758 5756 5755 5752 5750 5747 5745 5742 5739 5736 5732 5729 5725
5812 5811 5810 5808 5806 5804 5803 5801 5798 5797 5793 5791 5789 5787 5785 5783 5781 5779 5777 5776 5775 5773 5771 5770 5768 5766 5764 5763 5761 5759 5758 5756 5754 5753 5750 5748 5745 5743 5740 5737 5733 5730 5727 5723
5809 5808 5807 5805 5803 5801 5800 5798 5796 5795 5792 5789 5786 5784 5782 5780 5778 5776 5774 5773 5771 5770 5768 5767 5765 5764 5762 5760 5759 5758 5756 5755 5753 5750 5748 5746 5743 5740 5738 5735 5732 5728 5725 5721
5806 5805 5804 5802 5800 5800 5796 5794 5793 5791 5788 5785 5783 5781 5779 5778 5775 5773 5771 5770 5768 5767 5765 5764 5762 5761 5759 5758 5757 5756 5754 5753 5751 5749 5746 5744 5741 5739 5736 5733 5730 5727 5723 5719
5802 5801 5800 5799 5799 5795 5793 5791 5789 5786 5784 5782 5780 5778 5776 5775 5773 5771 5769 5767 5765 5764 5762 5761 5759 5758 5757 5755 5754 5753 5752 5751 5749 5747 5745 5743 5740 5738 5735 5732 5729 5725 5721 5717
5797 5796 5795 5794 5793 5791 5789 5787 5785 5783 5781 5779 5777 5775 5773 5771 5770 5769 5767 5765 5763 5761 5760 5758 5757 5755 5754 5753 5752 5751 5750 5748 5747 5745 5743 5741 5739 5737 5734 5731 5728 5724 5720 5715
5792 5791 5790 5789 5788 5786 5785 5783 5782 5780 5778 5776 5774 5772 5770 5768 5767 5766 5764 5762 5760 5759 5757 5756 5754 5753 5751 5750 5749 5748 5748 5747 5746 5744 5742 5740 5738 5736 5733 5730 5726 5722 5718 5714
5787 5786 5785 5785 5783 5782 5781 5779 5778 5776 5775 5773 5771 5769 5767 5766 5764 5763 5761 5759 5758 5756 5755 5753 5752 5751 5750 5749 5748 5747 5746 5745 5744 5743 5741 5739 5737 5734 5732 5728 5725 5721 5717 5712